Dewpoint
56 56 56 56 56 56 56 56 56 56 56 57 56 56 57 56 56 56 56 56 56 56 56 56 56 56 56 55 56 57 57 53 50 47 48 49 51 68 70 64 64 67 65 51 50 48 45 50 56 58 54 53 54 53 51 52 53 56 58 60 58 56 57 59 59 59 63 61 62 64 65 62 62 62 61 59 57 59 56 54 52 48 49 51 54 55 56 56
55 56 56 56 56 57 57 56 56 56 56 56 56 56 56 56 56 56 55 56 55 55 56 55 56 56 55 56 57 57 55 52 48 44 40 50 64 64 67 68 65 67 62 47 44 48 50 50 51 50 49 51 54 51 52 51 54 55 56 55 55 57 58 62 61 63 64 62 64 65 65 64 61 61 60 58 56 55 54 52 48 48 50 52 54 55 55 56
56 56 56 56 56 56 56 56 56 56 56 56 56 56 56 56 56 56 56 55 55 55 55 56 56 55 56 56 57 57 55 50 49 47 45 60 67 65 68 67 65 67 43 44 43 48 51 48 44 44 47 50 53 48 51 48 54 59 56 54 56 60 61 63 65 64 66 65 64 64 65 63 61 60 60 57 56 57 53 49 49 50 51 51 53 54 55 56
56 56 56 56 56 56 56 56 56 56 56 56 56 55 55 56 55 55 56 55 56 55 56 56 56 56 56 56 57 55 52 50 45 39 48 68 66 65 66 68 66 60 40 42 44 48 50 47 43 43 46 47 50 49 49 51 51 60 57 55 58 61 60 63 65 65 66 67 65 63 62 60 59 59 58 56 54 54 53 50 50 50 51 51 53 54 55 56
56 56 56 56 56 56 56 56 56 56 56 56 56 56 56 56 56 56 56 56 55 56 55 56 56 56 56 57 57 54 51 36 43 45 50 67 68 65 67 67 66 33 32 39 45 49 47 44 43 44 46 47 48 50 47 48 53 55 56 60 61 62 60 64 65 66 67 67 64 63 61 58 59 57 56 55 54 54 53 51 52 51 51 51 52 54 55 56
56 56 56 56 56 56 56 56 56 56 56 56 55 56 56 56 56 56 56 56 55 55 56 55 56 56 56 57 55 51 44 17 29 46 62 69 66 67 68 69 65 38 29 36 47 47 44 42 41 42 43 47 48 46 47 45 53 54 61 61 62 60 61 63 63 65 66 63 64 62 61 59 58 56 57 55 56 57 53 52 52 52 52 53 53 54 55 55
56 56 56 56 56 56 56 56 56 56 56 56 56 55 55 55 55 55 55 55 55 55 55 56 56 56 56 57 53 50 43 32 27 50 72 70 69 66 68 65 63 42 35 38 48 47 41 40 39 39 40 44 46 47 46 49 51 52 56 63 62 62 62 63 65 66 65 65 63 62 61 58 58 55 57 56 55 56 54 53 52 52 53 53 53 54 54 54
56 56 56 55 55 55 56 56 56 56 56 56 55 56 55 55 55 55 55 55 55 55 55 56 56 57 56 51 48 47 44 29 51 52 65 67 60 56 56 35 34 33 39 41 48 44 39 37 37 37 37 40 43 44 48 49 50 51 58 62 64 65 64 64 64 65 65 67 66 63 58 59 59 58 57 55 54 53 55 53 52 52 52 52 53 54 54 53
56 56 56 56 56 56 56 56 56 56 56 56 56 55 55 55 55 55 55 55 55 55 55 56 56 56 57 53 42 31 27 37 49 51 64 50 45 40 31 28 30 31 40 43 48 43 38 33 35 36 35 39 43 44 48 48 50 54 57 59 63 64 65 64 65 65 65 67 65 62 60 61 61 59 57 57 56 54 54 53 52 52 51 51 52 52 53 52
56 56 56 56 56 56 56 56 56 56 56 56 55 55 55 55 54 55 55 55 55 55 56 56 56 56 54 50 42 32 35 37 49 53 46 40 32 29 26 27 27 31 40 45 46 42 36 30 29 33 35 38 42 42 46 48 51 54 60 60 64 65 64 66 65 65 66 65 65 62 61 62 60 57 54 59 53 53 54 52 52 51 51 51 51 51 52 51
56 56 56 56 55 56 56 56 56 56 56 55 55 54 54 54 54 54 55 55 55 55 56 56 56 55 48 48 43 34 30 29 32 45 41 33 23 21 19 30 28 29 40 45 43 40 35 29 27 29 34 38 46 44 46 49 52 53 61 60 63 64 65 65 65 65 66 63 65 65 61 61 59 57 54 55 53 55 54 52 52 51 50 51 51 51 52 52
56 56 56 55 55 55 56 56 55 55 55 55 54 54 54 54 54 54 54 55 55 55 56 56 57 55 52 47 40 34 26 24 29 41 42 31 24 20 18 31 30 27 39 42 38 37 34 30 27 27 31 42 41 46 46 48 53 56 60 60 62 64 62 65 64 65 65 63 65 66 59 57 59 56 57 55 53 52 52 51 51 50 50 50 51 51 53 53
56 56 56 55 55 55 56 56 56 55 55 54 54 54 54 54 54 55 55 55 55 56 56 56 56 53 51 39 36 34 22 21 36 42 38 31 26 23 21 31 33 27 36 38 34 33 33 31 27 22 25 33 42 42 47 46 50 55 58 60 60 60 61 63 65 65 64 65 65 66 52 55 58 57 57 53 53 51 50 51 50 49 50 50 51 51 52 53
56 56 55 55 55 55 55 56 55 55 55 54 54 54 54 54 54 54 54 55 56 56 56 57 55 53 49 45 40 19 19 17 30 38 35 29 26 22 23 32 35 31 33 34 32 31 30 28 25 23 26 30 39 45 45 44 53 49 60 59 58 57 57 63 64 64 63 65 66 65 54 57 56 57 57 53 52 50 50 50 50 50 50 51 51 51 52 52
55 56 55 55 55 55 55 55 55 54 54 55 54 54 54 53 54 54 55 55 56 57 58 58 55 53 48 43 32 23 55 28 34 36 36 31 29 24 23 29 32 31 32 32 31 31 29 26 23 23 31 38 43 42 41 43 47 51 53 55 56 55 58 62 63 62 60 64 67 63 54 53 56 56 57 56 53 55 51 50 50 50 50 51 51 51 51 52
55 55 55 55 55 55 55 55 55 55 54 54 54 54 55 55 55 55 55 55 56 58 56 53 54 50 41 32 25 33 17 23 32 37 37 38 36 30 30 30 30 30 32 33 34 32 28 26 23 25 35 42 43 40 40 40 45 55 51 51 52 54 59 60 63 63 63 63 64 61 56 59 57 57 57 55 55 54 52 50 50 51 51 51 50 51 51 51
55 55 55 55 55 55 55 55 55 55 54 54 54 55 56 56 55 56 56 57 56 56 54 51 48 53 43 29 28 20 21 24 37 35 35 36 36 34 30 29 29 30 34 34 33 31 28 27 26 27 32 39 43 40 40 43 45 47 50 48 53 52 56 55 60 63 63 62 59 61 58 58 58 57 56 55 55 55 51 50 51 51 52 51 51 51 51 51
55 55 55 55 54 55 55 55 55 54 54 54 54 54 54 56 57 57 56 56 55 53 50 49 48 41 34 31 25 18 19 35 36 31 27 29 27 28 30 29 30 31 32 32 31 28 27 24 23 22 31 37 41 41 40 42 44 48 49 47 50 52 54 55 57 60 63 62 58 58 57 59 59 57 56 56 57 54 52 51 51 51 51 51 50 50 50 50
55 55 55 55 55 54 54 55 54 54 54 55 55 56 57 57 55 53 49 51 49 51 45 44 41 31 15 21 24 17 32 38 35 29 27 21 23 27 26 27 24 26 25 25 25 24 25 21 22 24 27 33 38 39 38 38 42 50 53 48 51 53 54 57 58 61 61 59 57 57 55 59 61 63 60 56 56 54 52 52 53 51 51 52 50 50 50 51
55 55 55 55 55 54 54 54 54 54 54 53 53 54 54 52 51 48 51 50 45 34 33 29 35 25 19 15 18 32 35 35 31 29 29 26 27 25 26 26 24 23 18 17 19 17 20 16 19 21 26 31 35 38 36 35 37 41 44 45 48 56 53 57 58 60 61 59 57 56 55 60 61 63 63 61 61 56 53 53 52 53 53 50 50 50 49 52
55 55 55 55 55 55 54 54 54 53 53 51 50 49 46 34 21 25 28 43 46 42 31 25 26 22 18 21 30 32 29 28 30 30 31 31 24 19 23 21 20 19 16 14 13 14 16 15 19 23 24 30 32 35 37 36 35 38 42 45 51 54 54 58 59 60 63 58 56 57 56 59 60 63 64 65 61 58 57 53 52 52 51 51 51 51 50 52
55 55 55 55 54 54 54 54 53 53 52 52 50 44 42 34 26 28 28 21 27 38 31 24 22 21 22 24 25 25 23 29 29 30 31 29 21 13 15 12 14 14 14 13 13 12 15 16 19 28 26 26 29 32 34 35 32 36 38 43 48 48 56 59 59 61 61 60 58 58 56 56 59 62 65 64 62 60 63 62 55 54 53 53 51 52 51 51
55 55 55 55 55 54 54 53 53 52 51 51 46 43 40 38 32 34 30 29 27 29 26 18 15 16 18 25 26 25 20 28 28 30 31 29 25 16 16 10 10 8 8 10 10 11 11 15 18 26 29 25 26 32 32 31 23 31 36 38 49 54 54 53 58 61 61 59 58 58 57 60 62 61 64 65 65 62 64 64 63 61 54 53 52 53 51 51
55 54 55 55 55 54 54 52 51 52 51 47 41 37 36 35 33 32 31 27 26 28 24 19 13 12 13 19 22 20 21 28 30 30 31 29 28 22 20 9 7 4 4 8 10 10 10 14 16 18 24 26 28 30 29 28 26 26 31 33 49 49 53 52 55 59 60 60 60 58 58 58 61 59 61 65 67 65 64 64 62 62 59 55 55 55 53 52
55 54 54 54 54 54 52 51 47 46 47 46 40 38 38 38 39 35 30 31 29 26 15 13 10 11 11 15 23 17 18 25 27 32 31 29 28 24 23 15 9 2 2 4 8 10 10 13 13 13 20 26 30 32 33 22 27 30 33 33 49 50 51 54 56 56 57 56 58 56 51 53 58 58 59 62 65 65 66 62 60 61 57 55 54 54 54 55
55 54 54 54 54 53 51 48 40 35 35 38 38 38 38 34 37 37 33 31 30 12 11 5 3 10 20 15 20 17 21 23 26 31 32 27 32 23 22 19 13 6 1 3 5 10 12 15 17 15 24 29 27 24 28 28 27 27 27 31 49 49 53 52 55 54 51 51 54 58 51 47 58 57 60 61 63 63 65 62 59 60 61 55 56 55 53 53
55 54 54 54 54 52 49 45 49 39 36 34 36 33 30 32 48 35 33 30 29 8 11 5 2 17 17 16 18 22 19 24 29 30 31 29 27 27 20 17 16 16 8 2 7 6 13 18 20 21 24 29 27 27 30 29 27 25 27 45 46 45 52 51 52 51 56 56 57 55 53 50 51 55 60 61 62 63 63 62 60 63 61 56 54 55 55 54
54 54 54 53 53 52 50 51 46 35 34 36 33 32 33 42 44 37 35 27 10 11 14 11 16 21 19 14 19 21 30 30 28 30 30 25 27 24 21 17 14 13 14 5 2 5 10 16 18 20 27 29 28 29 31 30 26 26 31 33 33 33 37 47 52 51 51 51 53 52 55 52 50 54 61 61 60 61 62 61 60 62 62 58 54 55 55 54
54 54 53 53 53 52 52 50 48 39 33 34 34 33 33 43 33 34 33 27 16 11 16 11 17 18 15 20 16 21 27 29 26 25 25 23 24 22 15 18 17 13 12 8 1 5 10 13 17 25 28 28 30 30 28 27 23 21 27 30 31 35 37 42 44 46 49 47 46 50 54 49 48 56 57 60 58 59 61 60 60 61 61 60 55 56 56 55
53 53 53 53 51 51 51 51 49 42 35 31 32 37 35 35 34 32 32 26 8 10 13 14 13 11 13 16 16 21 27 26 27 25 22 20 19 22 20 18 17 16 11 11 7 7 8 18 33 26 26 30 32 30 26 24 22 29 26 27 26 28 30 32 36 41 42 42 42 48 51 48 47 53 55 56 56 59 61 61 60 61 61 59 57 55 56 55
53 53 52 52 50 50 49 47 47 46 39 39 38 36 36 37 32 34 28 10 13 11 11 14 12 10 13 15 18 23 23 26 26 27 21 19 17 19 22 22 22 19 13 11 10 10 8 15 24 25 28 29 30 27 27 26 24 23 21 27 29 31 32 35 37 42 39 39 40 43 47 49 46 52 55 57 57 59 61 61 59 60 60 61 60 56 56 56
52 51 52 51 51 52 43 36 37 38 44 41 37 35 33 32 40 30 17 5 5 13 12 15 15 12 12 14 19 20 21 26 27 26 22 15 17 16 21 21 20 20 13 14 13 9 9 20 23 20 29 25 27 26 19 24 24 21 23 28 31 32 33 32 37 37 39 40 53 48 48 49 46 54 58 55 57 57 61 62 60 59 60 61 60 57 58 57
51 51 51 51 52 51 50 48 43 46 46 40 37 35 33 38 27 19 14 9 15 12 13 12 13 14 13 12 17 17 18 25 26 26 27 19 18 16 18 19 17 15 15 20 18 8 10 19 23 23 24 26 24 21 23 23 24 21 23 26 31 32 35 34 35 38 39 43 54 52 52 48 52 53 53 55 58 58 60 63 64 62 61 62 63 63 57 56
51 51 51 52 51 51 49 52 49 49 42 41 39 35 37 32 29 17 12 10 10 10 10 7 12 14 19 17 17 16 14 19 24 24 26 23 19 16 15 17 18 14 17 23 17 12 16 17 18 20 22 23 23 22 22 21 16 18 20 23 31 35 36 37 37 38 41 46 48 51 50 46 47 53 56 57 58 61 62 63 65 64 64 64 63 62 61 56
50 51 52 53 53 52 51 50 49 43 42 39 36 35 31 27 18 15 13 10 10 9 9 6 10 17 16 19 19 19 18 19 22 23 23 21 18 18 14 15 21 20 20 21 17 17 10 14 19 22 23 21 20 24 25 25 21 19 20 23 27 32 39 39 40 40 40 44 45 48 50 51 50 58 60 57 58 61 60 62 66 66 64 65 63 62 60 56
51 55 53 52 51 50 51 50 47 42 41 38 36 40 34 29 15 13 10 11 8 9 3 7 13 13 18 18 20 20 20 20 21 23 22 22 18 18 17 15 17 21 21 20 19 12 13 13 17 23 22 18 17 19 23 24 19 17 19 21 23 31 34 42 40 42 44 42 42 47 49 53 56 58 58 58 58 60 60 64 66 65 65 66 63 61 62 60
50 53 46 43 43 44 48 45 42 43 41 37 38 30 30 23 11 12 18 9 10 8 6 7 13 14 18 21 19 20 19 18 21 21 22 22 21 18 17 15 16 19 21 19 18 17 15 13 13 22 18 17 17 16 18 23 23 19 16 17 19 27 32 38 39 40 42 37 43 46 45 51 50 48 57 58 57 61 63 65 66 65 65 65 64 63 62 60
52 47 44 40 42 42 43 45 42 41 37 35 32 33 28 17 13 8 9 12 6 5 5 10 10 9 15 14 16 18 18 13 21 21 22 21 24 22 18 15 17 14 15 15 18 19 19 15 13 19 16 16 18 16 14 18 19 17 17 22 18 26 27 34 39 37 36 37 43 44 48 48 50 51 57 56 57 59 61 64 63 64 65 65 64 62 61 61
54 45 38 34 35 34 42 45 42 40 36 35 29 30 24 16 12 12 12 11 10 10 10 11 10 8 7 8 14 14 17 10 17 17 20 22 21 23 20 20 17 14 16 18 18 21 22 18 16 14 14 16 15 15 14 11 12 13 17 18 22 24 27 33 35 39 40 43 39 42 45 43 49 54 55 56 57 58 59 61 63 63 63 62 61 60 62 62
42 34 34 33 31 39 47 44 37 37 32 37 40 34 20 16 14 12 11 13 12 10 14 13 10 11 9 10 13 13 15 13 14 14 17 21 19 22 19 19 19 18 18 17 16 19 22 26 18 14 15 14 14 14 11 11 8 11 15 17 20 24 28 33 36 36 39 39 34 42 41 45 52 58 56 56 56 58 57 60 63 63 65 63 62 62 62 62
35 30 33 37 35 42 42 38 34 29 30 28 28 17 15 15 13 11 10 11 6 11 11 13 14 13 13 10 12 13 14 12 14 13 14 19 19 20 20 21 22 19 18 18 18 19 23 21 19 16 14 14 12 13 12 10 8 9 14 17 19 24 24 28 31 33 32 33 32 36 42 49 53 60 59 59 58 57 58 59 64 63 65 65 62 63 65 64
44 38 29 36 37 38 34 26 27 29 27 32 30 17 17 26 11 9 4 11 5 8 11 10 14 13 14 15 13 13 14 12 13 14 18 18 16 17 17 19 19 20 20 19 19 21 24 21 20 19 16 13 12 12 13 11 9 8 7 8 13 17 26 30 28 30 31 32 33 42 43 46 53 60 59 58 59 58 62 62 63 64 64 64 63 62 64 65
33 34 37 37 37 32 26 24 32 30 26 21 18 17 11 11 8 5 8 9 8 7 10 9 14 15 17 16 16 13 16 14 12 14 18 18 15 15 17 17 16 15 16 16 17 19 27 20 20 18 19 18 15 10 12 10 7 6 7 7 5 6 13 25 32 32 35 35 33 41 41 48 55 61 60 62 62 61 62 62 62 62 64 65 65 62 63 66
32 28 32 34 36 32 26 26 29 33 27 22 16 16 11 11 11 13 11 14 10 12 14 15 17 11 16 15 16 16 15 16 15 17 19 20 19 18 17 17 17 16 15 25 26 26 19 26 23 20 21 22 20 9 6 6 6 6 6 9 9 7 8 15 27 33 32 32 33 42 41 45 56 61 59 61 60 60 60 62 63 63 63 63 66 69 66 68
43 40 33 33 36 30 23 25 28 35 24 22 21 19 17 12 16 15 14 13 13 13 13 15 13 15 17 18 18 18 17 14 17 15 21 20 17 18 16 16 17 16 25 31 44 23 23 22 26 17 20 20 21 14 13 11 7 5 9 8 11 9 12 14 19 32 29 34 34 40 44 50 57 58 58 59 59 60 61 63 64 64 64 64 64 66 68 69
39 36 28 30 27 25 26 26 25 25 34 26 21 20 16 15 17 15 11 14 11 14 16 14 15 13 15 17 18 18 19 17 17 17 19 20 18 17 16 16 15 16 37 42 35 25 25 27 28 26 22 23 36 32 24 22 8 5 3 6 8 11 12 15 19 23 23 32 35 47 48 53 54 56 57 57 58 59 61 61 62 63 64 65 65 67 67 68
38 33 26 31 26 22 20 22 22 20 20 24 29 23 22 19 15 15 11 13 15 13 15 15 15 17 18 17 17 16 17 17 18 19 16 16 18 17 15 15 15 26 45 32 28 22 31 26 26 31 27 25 23 25 24 25 15 10 6 5 9 14 13 15 14 15 40 29 31 48 53 51 51 54 56 57 57 59 59 61 62 62 64 65 65 65 65 66
33 32 31 33 28 26 23 24 22 21 22 18 28 21 20 18 18 20 18 16 14 15 13 25 20 13 15 19 20 20 20 21 22 20 18 17 17 15 14 15 14 41 36 17 23 25 26 25 26 25 24 24 23 24 24 20 16 18 18 10 10 12 14 16 17 15 21 28 38 48 51 51 51 53 55 56 58 59 59 62 61 63 64 65 65 65 65 65
35 34 32 33 30 31 28 30 26 23 24 21 25 22 19 19 19 20 19 19 18 20 17 23 20 19 18 18 20 24 29 22 24 25 26 24 18 20 18 13 11 19 15 15 21 36 30 24 26 26 25 22 20 21 21 20 20 19 18 13 10 8 9 12 14 12 15 36 46 47 49 48 49 53 53 56 58 60 60 61 63 63 64 64 64 64 63 64
42 45 42 40 36 29 30 28 23 21 24 29 28 26 20 20 21 20 18 17 19 21 21 21 21 20 20 22 27 26 30 26 27 26 24 25 24 24 22 21 17 17 16 15 16 31 26 27 28 24 26 24 22 19 18 19 20 19 16 16 8 8 6 6 8 17 22 27 42 48 50 50 50 55 56 59 60 59 59 58 58 61 62 62 63 63 63 64
44 48 50 43 38 35 35 29 24 26 28 27 22 26 23 21 21 21 21 17 17 23 23 22 21 23 23 24 24 24 23 28 28 27 25 24 23 24 22 22 18 22 20 20 22 27 26 26 26 27 26 24 22 20 17 17 17 17 18 22 35 30 20 24 26 31 38 34 48 48 49 51 52 56 58 59 59 58 59 60 59 59 60 62 62 63 63 64
50 53 48 41 37 42 31 27 26 24 23 26 23 26 24 26 22 19 26 21 17 15 19 19 21 23 29 29 26 26 23 21 19 22 24 20 21 20 19 20 20 22 22 21 26 22 31 28 28 29 24 23 22 22 19 17 17 17 27 40 36 33 39 42 44 46 46 45 44 43 47 53 54 56 57 57 57 58 59 59 60 60 61 61 61 61 62 63